Погода в Каче

Россия / Республика Крым     44°46′22″N   33°32′37″E
темп.,
°C
ветер,
м/с
пор.,
м/с
влажн.,
%
обл.,
%
осадки,
мм/ч
давл.,
гПа
погр.,
м
11 мая, вт
вт1100:00+13ссз3567100 0.0 1021368
03:00+13сз577038 0.0 1020597
06:00+13сз697435 0.0 1018556
09:00+13ссз5770100 0.0 1018933
12:00+13сз787088 0.0 1017819
15:00+13сз567681 0.0 1016494
18:00+14з567977 0.0 1014286
21:00+13з128568 0.0 101499
12 мая, ср
ср1200:00+13св238248 0.0 1013128
03:00+12всв338567 0.0 1012131
06:00+11св448346 0.0 1012156
09:00+13всв1272100 0.0 1012276
12:00+13зсз337081 0.0 1013327
15:00+13з2261100 0.0 1013230
18:00+14с225556 0.0 1012174
21:00+13св11626 0.0 101241
13 мая, чт
чт1300:00+13вюв11623 0.0 101253
03:00+12всв33695 0.0 1011100
06:00+12всв337558 0.0 1011112
09:00+15с1169100 0.0 1011109
12:00+14з4474100 0.0 1011147
15:00+14з457789 0.0 1010148
18:00+16с447170 0.0 100980
21:00+15всв34789 0.0 101047
14 мая, пт
пт1400:00+14юз01815 0.0 100911
03:00+14ссв11800 0.0 100927
06:00+14вюв11715 0.0 100911
09:00+16ююз2265100 0.0 101044
12:00+16юз55690 0.0 1011140
15:00+15юз45730 0.0 1011122
18:00+16юз33760 0.0 101170
21:00+15ююз44800 0.0 101242
15 мая, сб
сб1500:00+15юз57843 0.0 1013103
03:00+15ююз33884 0.0 101343
06:00+15ююв22845 0.0 101419
09:00+16ююз2376100 0.0 101465
12:00+16юз458092 0.0 1014141
15:00+16юз46852 0.0 1014135
18:00+16зюз45850 0.0 1013102
21:00+16в228556 0.0 101211